ONEWEB-0052 (45156 NORAD) Tracking and Keplerian Element Data

This shows tracking and keplerian element data for the satellite.

Feedback or suggestion? Click here.




ElementValue
Catalog45156
NameONEWEB-0052
Epoch Orbit3853
Epoch Day297.91667824
Epoch Year2020
RAAN86.478
Inclination87.9062
Eccentricity0.0021246
Argument of Perigee146.721
Mean Anonmoly252.3509
Mean Motion13.40355195
Decay Rate5.975E-05
L11 45156U 20008AB 20297.91667824 .00005975 00000-0 10883-1 0 9991
L22 45156 87.9062 86.4780 0021246 146.7210 252.3509 13.40355195 38535

Live tracking and technical data element details for ONEWEB-0052 (NORAD 45156). ONEWEB-0052 can be tracked NOW for your location showing map with azimuth and elevation plus other details from your city location.

Track the satellite on the map from your city or location and see movement details for azimuth, elevation, latitude, longitude, range, height, and movement on the map or in text.







IsCatalogInMostPopularTable: catalog: 45156, numindb: 61
Update: records affected: 1



GetName: 45156 ONEWEB-0052

Hit Count: updated at: Sun, 25 Oct 2020 00:13:25 GMT